Time,TemperatureF,DewpointF,PressureIn,WindDirection,WindDirectionDegrees,WindSpeedMPH,WindSpeedGustMPH,Humidity,HourlyPrecipIn,Conditions,Clouds,dailyrainin,SoftwareType,DateUTC
2013-05-26 00:01:00,62.8,52.9,30.15,SSW,202,0.0,0.0,70,0.00,,,0.00,WUHU21623XXSP,2013-05-26 05:01:00,
2013-05-26 00:06:00,62.4,52.5,30.14,SSW,202,0.0,0.0,70,0.00,,,0.00,WUHU21623XXSP,2013-05-26 05:06:00,
2013-05-26 00:11:00,62.2,52.7,30.14,SSW,202,0.0,0.0,71,0.00,,,0.00,WUHU21623XXSP,2013-05-26 05:11:00,
2013-05-26 00:16:00,62.1,52.9,30.14,SSW,202,0.0,0.0,72,0.00,,,0.00,WUHU21623XXSP,2013-05-26 05:16:00,
2013-05-26 00:21:00,61.9,52.8,30.14,SSW,202,0.0,0.0,72,0.00,,,0.00,WUHU21623XXSP,2013-05-26 05:21:00,
2013-05-26 00:26:00,61.7,53.0,30.15,SSW,202,0.0,0.0,73,0.00,,,0.00,WUHU21623XXSP,2013-05-26 05:26:00,
2013-05-26 00:31:00,61.7,53.0,30.15,SSW,202,0.0,0.0,73,0.00,,,0.00,WUHU21623XXSP,2013-05-26 05:31:00,
2013-05-26 00:36:00,61.5,52.4,30.14,SSW,202,0.0,0.0,72,0.00,,,0.00,WUHU21623XXSP,2013-05-26 05:36:00,
2013-05-26 00:41:00,61.5,52.8,30.14,SSW,202,0.0,0.0,73,0.00,,,0.00,WUHU21623XXSP,2013-05-26 05:41:00,
2013-05-26 00:46:00,61.2,52.5,30.15,SSW,202,0.0,0.0,73,0.00,,,0.00,WUHU21623XXSP,2013-05-26 05:46:00,
2013-05-26 00:51:00,61.0,52.3,30.15,SSW,202,0.0,0.0,73,0.00,,,0.00,WUHU21623XXSP,2013-05-26 05:51:00,
2013-05-26 00:57:00,60.6,52.0,30.15,SSW,202,0.0,0.0,73,0.00,,,0.00,WUHU21623XXSP,2013-05-26 05:57:00,
2013-05-26 01:02:00,60.4,51.8,30.15,SSW,202,0.0,0.0,73,0.00,,,0.00,WUHU21623XXSP,2013-05-26 06:02:00,
2013-05-26 01:10:00,60.4,51.8,30.15,SSW,202,0.0,0.0,73,0.00,,,0.00,WUHU21623XXSP,2013-05-26 06:10:00,
2013-05-26 01:15:00,59.7,51.1,30.15,SSW,202,0.0,0.0,73,0.00,,,0.00,WUHU21623XXSP,2013-05-26 06:15:00,
2013-05-26 01:20:00,59.5,51.3,30.14,SSW,202,0.0,0.0,74,0.00,,,0.00,WUHU21623XXSP,2013-05-26 06:20:00,
2013-05-26 01:25:00,59.4,51.1,30.14,SSW,202,0.0,0.0,74,0.00,,,0.00,WUHU21623XXSP,2013-05-26 06:25:00,
2013-05-26 01:30:00,59.2,50.9,30.14,SSW,202,0.0,0.0,74,0.00,,,0.00,WUHU21623XXSP,2013-05-26 06:30:00,
2013-05-26 01:35:00,59.2,50.9,30.14,SSW,202,0.0,0.0,74,0.00,,,0.00,WUHU21623XXSP,2013-05-26 06:35:00,
2013-05-26 01:40:00,58.8,50.9,30.14,SSW,202,0.0,0.0,75,0.00,,,0.00,WUHU21623XXSP,2013-05-26 06:40:00,
2013-05-26 01:45:00,58.8,51.3,30.14,SSW,202,0.0,0.0,76,0.00,,,0.00,WUHU21623XXSP,2013-05-26 06:45:00,
2013-05-26 01:50:00,58.8,51.6,30.14,SSW,202,0.0,0.0,77,0.00,,,0.00,WUHU21623XXSP,2013-05-26 06:50:00,
2013-05-26 01:55:00,59.0,51.8,30.14,SSW,202,0.0,0.0,77,0.00,,,0.00,WUHU21623XXSP,2013-05-26 06:55:00,
2013-05-26 02:00:00,59.2,52.0,30.14,SSW,202,0.0,0.0,77,0.00,,,0.00,WUHU21623XXSP,2013-05-26 07:00:00,
2013-05-26 02:05:00,59.2,52.0,30.15,SSW,202,0.0,0.0,77,0.00,,,0.00,WUHU21623XXSP,2013-05-26 07:05:00,
2013-05-26 02:10:00,58.8,51.6,30.14,SSW,202,0.0,0.0,77,0.00,,,0.00,WUHU21623XXSP,2013-05-26 07:10:00,
2013-05-26 02:15:00,58.8,51.6,30.15,SSW,202,0.0,0.0,77,0.00,,,0.00,WUHU21623XXSP,2013-05-26 07:15:00,
2013-05-26 02:20:00,58.6,51.1,30.15,SSW,202,0.0,0.0,76,0.00,,,0.00,WUHU21623XXSP,2013-05-26 07:20:00,
2013-05-26 02:25:00,58.5,50.9,30.15,SSW,202,0.0,0.0,76,0.00,,,0.00,WUHU21623XXSP,2013-05-26 07:25:00,
2013-05-26 02:30:00,58.5,50.9,30.15,SSW,202,0.0,0.0,76,0.00,,,0.00,WUHU21623XXSP,2013-05-26 07:30:00,
2013-05-26 02:35:00,58.1,50.5,30.15,SSW,202,0.0,0.0,76,0.00,,,0.00,WUHU21623XXSP,2013-05-26 07:35:00,
2013-05-26 02:40:00,58.1,51.3,30.15,SSW,202,0.0,0.0,78,0.00,,,0.00,WUHU21623XXSP,2013-05-26 07:40:00,
2013-05-26 02:45:00,57.9,51.4,30.15,SSW,202,0.0,0.0,79,0.00,,,0.00,WUHU21623XXSP,2013-05-26 07:45:00,
2013-05-26 02:50:00,57.7,51.3,30.16,SSW,202,0.0,0.0,79,0.00,,,0.00,WUHU21623XXSP,2013-05-26 07:50:00,
2013-05-26 02:55:00,57.7,51.3,30.15,SSW,202,0.0,0.0,79,0.00,,,0.00,WUHU21623XXSP,2013-05-26 07:55:00,
2013-05-26 03:00:00,57.6,51.1,30.15,SSW,202,0.0,0.0,79,0.00,,,0.00,WUHU21623XXSP,2013-05-26 08:00:00,
2013-05-26 03:05:00,57.6,51.1,30.16,SSW,202,0.0,0.0,79,0.00,,,0.00,WUHU21623XXSP,2013-05-26 08:05:00,
2013-05-26 03:10:00,57.4,50.9,30.15,SSW,202,0.0,0.0,79,0.00,,,0.00,WUHU21623XXSP,2013-05-26 08:10:00,
2013-05-26 03:15:00,57.4,51.3,30.15,SSW,202,0.0,0.0,80,0.00,,,0.00,WUHU21623XXSP,2013-05-26 08:15:00,
2013-05-26 03:20:00,57.4,51.3,30.15,SSW,202,0.0,0.0,80,0.00,,,0.00,WUHU21623XXSP,2013-05-26 08:20:00,
2013-05-26 03:25:00,57.4,51.3,30.14,SSW,202,0.0,0.0,80,0.00,,,0.00,WUHU21623XXSP,2013-05-26 08:25:00,
2013-05-26 03:30:00,57.4,51.3,30.14,SSW,202,0.0,0.0,80,0.00,,,0.00,WUHU21623XXSP,2013-05-26 08:30:00,
2013-05-26 03:35:00,57.4,51.9,30.14,SSW,202,0.0,0.0,82,0.00,,,0.00,WUHU21623XXSP,2013-05-26 08:35:00,
2013-05-26 03:40:00,57.4,52.2,30.14,SSW,202,0.0,0.0,83,0.00,,,0.00,WUHU21623XXSP,2013-05-26 08:40:00,
2013-05-26 03:45:00,57.6,52.4,30.15,SSW,202,0.0,0.0,83,0.00,,,0.00,WUHU21623XXSP,2013-05-26 08:45:00,
2013-05-26 03:50:00,57.4,52.2,30.15,SSW,202,0.0,0.0,83,0.00,,,0.00,WUHU21623XXSP,2013-05-26 08:50:00,
2013-05-26 03:55:00,57.4,52.2,30.15,SSW,202,0.0,0.0,83,0.00,,,0.00,WUHU21623XXSP,2013-05-26 08:55:00,
2013-05-26 04:00:00,57.4,52.2,30.15,SSW,202,0.0,0.0,83,0.00,,,0.00,WUHU21623XXSP,2013-05-26 09:00:00,
2013-05-26 04:05:00,57.0,51.9,30.15,SSW,202,0.0,0.0,83,0.00,,,0.00,WUHU21623XXSP,2013-05-26 09:05:00,
2013-05-26 04:10:00,57.0,51.9,30.15,SSW,202,0.0,0.0,83,0.00,,,0.00,WUHU21623XXSP,2013-05-26 09:10:00,
2013-05-26 04:15:00,56.8,51.4,30.15,SSW,202,0.0,0.0,82,0.00,,,0.00,WUHU21623XXSP,2013-05-26 09:15:00,
2013-05-26 04:20:00,56.8,51.4,30.15,SSW,202,0.0,0.0,82,0.00,,,0.00,WUHU21623XXSP,2013-05-26 09:20:00,
2013-05-26 04:25:00,56.7,51.2,30.15,SSW,202,0.0,0.0,82,0.00,,,0.00,WUHU21623XXSP,2013-05-26 09:25:00,
2013-05-26 04:30:00,56.7,51.2,30.15,SSW,202,0.0,0.0,82,0.00,,,0.00,WUHU21623XXSP,2013-05-26 09:30:00,
2013-05-26 04:35:00,56.5,51.0,30.15,SSW,202,0.0,0.0,82,0.00,,,0.00,WUHU21623XXSP,2013-05-26 09:35:00,
2013-05-26 04:40:00,56.7,51.2,30.15,SSW,202,0.0,0.0,82,0.00,,,0.00,WUHU21623XXSP,2013-05-26 09:40:00,
2013-05-26 04:45:00,56.5,51.0,30.15,SSW,202,0.0,0.0,82,0.00,,,0.00,WUHU21623XXSP,2013-05-26 09:45:00,
2013-05-26 04:50:00,56.5,51.0,30.15,SSW,202,0.0,0.0,82,0.00,,,0.00,WUHU21623XXSP,2013-05-26 09:50:00,
2013-05-26 04:55:00,56.3,50.8,30.15,SSW,202,0.0,0.0,82,0.00,,,0.00,WUHU21623XXSP,2013-05-26 09:55:00,
2013-05-26 05:00:00,56.7,51.5,30.15,South,180,0.0,0.0,83,0.00,,,0.00,WUHU21623XXSP,2013-05-26 10:00:00,
2013-05-26 05:05:00,56.5,51.3,30.15,SE,135,0.0,0.0,83,0.00,,,0.00,WUHU21623XXSP,2013-05-26 10:05:00,
2013-05-26 05:10:00,56.7,51.8,30.14,SE,135,0.0,0.0,84,0.00,,,0.00,WUHU21623XXSP,2013-05-26 10:10:00,
2013-05-26 05:15:00,56.5,51.7,30.14,SE,135,0.0,0.0,84,0.00,,,0.00,WUHU21623XXSP,2013-05-26 10:15:00,
2013-05-26 05:20:00,56.7,51.8,30.14,SE,135,0.0,0.0,84,0.00,,,0.00,WUHU21623XXSP,2013-05-26 10:20:00,
2013-05-26 05:25:00,56.5,51.7,30.15,SE,135,0.0,0.0,84,0.00,,,0.00,WUHU21623XXSP,2013-05-26 10:25:00,
2013-05-26 05:30:00,56.5,51.7,30.14,ESE,112,0.0,0.0,84,0.00,,,0.00,WUHU21623XXSP,2013-05-26 10:30:00,
2013-05-26 05:35:00,56.5,51.7,30.14,SE,135,0.0,0.0,84,0.00,,,0.00,WUHU21623XXSP,2013-05-26 10:35:00,
2013-05-26 05:40:00,56.5,51.7,30.15,SE,135,0.0,0.0,84,0.00,,,0.00,WUHU21623XXSP,2013-05-26 10:40:00,
2013-05-26 05:45:00,56.5,51.7,30.15,SE,135,0.0,0.0,84,0.00,,,0.00,WUHU21623XXSP,2013-05-26 10:45:00,
2013-05-26 05:50:00,56.5,51.7,30.15,SE,135,0.0,0.0,84,0.00,,,0.00,WUHU21623XXSP,2013-05-26 10:50:00,
2013-05-26 05:55:00,56.5,51.7,30.15,SE,135,0.0,0.0,84,0.00,,,0.00,WUHU21623XXSP,2013-05-26 10:55:00,
2013-05-26 06:00:00,56.7,51.8,30.15,SE,135,0.0,0.0,84,0.00,,,0.00,WUHU21623XXSP,2013-05-26 11:00:00,
2013-05-26 06:05:00,56.7,51.8,30.15,SE,135,0.0,0.0,84,0.00,,,0.00,WUHU21623XXSP,2013-05-26 11:05:00,
2013-05-26 06:10:00,56.7,51.8,30.15,SE,135,0.0,0.0,84,0.00,,,0.00,WUHU21623XXSP,2013-05-26 11:10:00,
2013-05-26 06:15:00,56.7,51.8,30.16,SE,135,0.0,0.0,84,0.00,,,0.00,WUHU21623XXSP,2013-05-26 11:15:00,
2013-05-26 06:20:00,56.7,51.8,30.16,SE,135,0.0,0.0,84,0.00,,,0.00,WUHU21623XXSP,2013-05-26 11:20:00,
2013-05-26 06:25:00,56.7,51.8,30.17,SE,135,0.0,0.0,84,0.00,,,0.00,WUHU21623XXSP,2013-05-26 11:25:00,
2013-05-26 06:30:00,56.8,52.0,30.17,SE,135,0.0,0.0,84,0.00,,,0.00,WUHU21623XXSP,2013-05-26 11:30:00,
2013-05-26 06:35:00,56.8,52.0,30.17,ESE,112,0.0,0.0,84,0.00,,,0.00,WUHU21623XXSP,2013-05-26 11:35:00,
2013-05-26 06:40:00,57.0,52.5,30.17,ESE,112,0.0,0.0,85,0.00,,,0.00,WUHU21623XXSP,2013-05-26 11:40:00,
2013-05-26 06:45:00,57.4,52.9,30.18,ESE,112,0.0,0.0,85,0.00,,,0.00,WUHU21623XXSP,2013-05-26 11:45:00,
2013-05-26 06:50:00,57.6,53.1,30.18,ESE,112,0.0,0.0,85,0.00,,,0.00,WUHU21623XXSP,2013-05-26 11:50:00,
2013-05-26 06:55:00,57.7,53.2,30.18,ESE,112,0.0,0.0,85,0.00,,,0.00,WUHU21623XXSP,2013-05-26 11:55:00,
2013-05-26 07:00:00,58.1,53.6,30.18,ESE,112,0.0,0.0,85,0.00,,,0.00,WUHU21623XXSP,2013-05-26 12:00:00,
2013-05-26 07:05:00,58.5,53.6,30.18,SE,135,0.0,0.0,84,0.00,,,0.00,WUHU21623XXSP,2013-05-26 12:05:00,
2013-05-26 07:10:00,58.8,54.3,30.18,ESE,112,0.0,0.0,85,0.00,,,0.00,WUHU21623XXSP,2013-05-26 12:10:00,
2013-05-26 07:15:00,59.4,54.9,30.18,SE,135,0.0,0.0,85,0.00,,,0.00,WUHU21623XXSP,2013-05-26 12:15:00,
2013-05-26 07:20:00,59.7,55.2,30.18,SSW,202,0.0,0.0,85,0.00,,,0.00,WUHU21623XXSP,2013-05-26 12:20:00,
2013-05-26 07:25:00,60.4,55.6,30.18,ESE,112,0.0,0.0,84,0.00,,,0.00,WUHU21623XXSP,2013-05-26 12:25:00,
2013-05-26 07:30:00,61.0,56.1,30.18,ESE,112,0.0,1.1,84,0.00,,,0.00,WUHU21623XXSP,2013-05-26 12:30:00,
2013-05-26 07:35:00,61.5,56.6,30.18,ESE,112,0.0,1.1,84,0.00,,,0.00,WUHU21623XXSP,2013-05-26 12:35:00,
2013-05-26 07:40:00,62.1,56.8,30.18,ESE,112,0.0,0.0,83,0.00,,,0.00,WUHU21623XXSP,2013-05-26 12:40:00,
2013-05-26 07:45:00,62.8,57.5,30.18,ESE,112,0.0,0.0,83,0.00,,,0.00,WUHU21623XXSP,2013-05-26 12:45:00,
2013-05-26 07:50:00,63.0,57.3,30.18,ESE,112,0.0,0.0,82,0.00,,,0.00,WUHU21623XXSP,2013-05-26 12:50:00,
2013-05-26 07:55:00,63.5,57.9,30.18,ESE,112,0.0,2.0,82,0.00,,,0.00,WUHU21623XXSP,2013-05-26 12:55:00,
2013-05-26 08:00:00,63.9,57.9,30.18,SE,135,0.0,3.4,81,0.00,,,0.00,WUHU21623XXSP,2013-05-26 13:00:00,
2013-05-26 08:05:00,64.2,57.9,30.18,East,90,0.0,3.4,80,0.00,,,0.00,WUHU21623XXSP,2013-05-26 13:05:00,
2013-05-26 08:10:00,64.8,58.1,30.18,ESE,112,0.0,0.0,79,0.00,,,0.00,WUHU21623XXSP,2013-05-26 13:10:00,
2013-05-26 08:15:00,65.1,58.4,30.18,ESE,112,0.0,0.0,79,0.00,,,0.00,WUHU21623XXSP,2013-05-26 13:15:00,
2013-05-26 08:20:00,65.7,58.6,30.19,ESE,112,0.0,2.5,78,0.00,,,0.00,WUHU21623XXSP,2013-05-26 13:20:00,
2013-05-26 08:25:00,66.4,58.9,30.19,ESE,112,0.0,2.5,77,0.00,,,0.00,WUHU21623XXSP,2013-05-26 13:25:00,
2013-05-26 08:30:00,66.7,58.9,30.19,SSW,202,0.0,0.0,76,0.00,,,0.00,WUHU21623XXSP,2013-05-26 13:30:00,
2013-05-26 08:35:00,67.3,58.3,30.19,SSE,157,0.0,0.0,73,0.00,,,0.00,WUHU21623XXSP,2013-05-26 13:35:00,
2013-05-26 08:40:00,68.2,58.8,30.18,ESE,112,0.0,0.0,72,0.00,,,0.00,WUHU21623XXSP,2013-05-26 13:40:00,
2013-05-26 08:45:00,68.5,59.2,30.19,SE,135,1.3,1.3,72,0.00,,,0.00,WUHU21623XXSP,2013-05-26 13:45:00,
2013-05-26 08:50:00,68.7,59.3,30.19,SE,135,0.0,1.3,72,0.00,,,0.00,WUHU21623XXSP,2013-05-26 13:50:00,
2013-05-26 08:55:00,69.3,59.1,30.19,SW,225,0.0,0.0,70,0.00,,,0.00,WUHU21623XXSP,2013-05-26 13:55:00,
2013-05-26 09:00:00,69.8,59.5,30.19,ESE,112,1.8,2.9,70,0.00,,,0.00,WUHU21623XXSP,2013-05-26 14:00:00,
2013-05-26 09:05:00,70.3,60.1,30.19,SE,135,0.0,2.9,70,0.00,,,0.00,WUHU21623XXSP,2013-05-26 14:05:00,
2013-05-26 09:10:00,71.1,59.9,30.19,SSW,202,0.0,0.0,68,0.00,,,0.00,WUHU21623XXSP,2013-05-26 14:10:00,
2013-05-26 09:15:00,71.2,60.1,30.19,NW,315,0.0,0.0,68,0.00,,,0.00,WUHU21623XXSP,2013-05-26 14:15:00,
2013-05-26 09:20:00,71.8,60.2,30.19,ESE,112,0.0,0.0,67,0.00,,,0.00,WUHU21623XXSP,2013-05-26 14:20:00,
2013-05-26 09:25:00,72.1,59.7,30.20,SSW,202,0.0,0.0,65,0.00,,,0.00,WUHU21623XXSP,2013-05-26 14:25:00,
2013-05-26 09:30:00,72.5,60.0,30.19,SSW,202,0.0,1.6,65,0.00,,,0.00,WUHU21623XXSP,2013-05-26 14:30:00,
2013-05-26 09:35:00,72.9,59.9,30.19,NW,315,0.0,1.6,64,0.00,,,0.00,WUHU21623XXSP,2013-05-26 14:35:00,
2013-05-26 09:40:00,73.9,60.9,30.19,South,180,0.0,0.0,64,0.00,,,0.00,WUHU21623XXSP,2013-05-26 14:40:00,
2013-05-26 09:45:00,74.5,60.6,30.19,ENE,67,0.0,0.0,62,0.00,,,0.00,WUHU21623XXSP,2013-05-26 14:45:00,
2013-05-26 09:50:00,75.4,61.0,30.19,SSW,202,0.0,0.0,61,0.00,,,0.00,WUHU21623XXSP,2013-05-26 14:50:00,
2013-05-26 09:55:00,75.6,59.8,30.19,SSW,202,0.0,0.0,58,0.00,,,0.00,WUHU21623XXSP,2013-05-26 14:55:00,
2013-05-26 10:00:00,75.9,59.6,30.19,West,270,0.0,0.0,57,0.00,,,0.00,WUHU21623XXSP,2013-05-26 15:00:00,
2013-05-26 10:05:00,75.9,58.6,30.19,NW,315,0.0,0.0,55,0.00,,,0.00,WUHU21623XXSP,2013-05-26 15:05:00,
2013-05-26 10:10:00,76.1,58.2,30.19,West,270,0.0,0.0,54,0.00,,,0.00,WUHU21623XXSP,2013-05-26 15:10:00,
2013-05-26 10:15:00,76.5,58.0,30.19,SE,135,0.0,0.0,53,0.00,,,0.00,WUHU21623XXSP,2013-05-26 15:15:00,
2013-05-26 10:20:00,77.0,58.2,30.19,SSE,157,0.0,0.0,52,0.00,,,0.00,WUHU21623XXSP,2013-05-26 15:20:00,
2013-05-26 10:25:00,77.4,57.8,30.19,South,180,0.0,0.0,51,0.00,,,0.00,WUHU21623XXSP,2013-05-26 15:25:00,
2013-05-26 10:30:00,77.7,57.7,30.18,South,180,0.0,2.7,50,0.00,,,0.00,WUHU21623XXSP,2013-05-26 15:30:00,
2013-05-26 10:35:00,78.1,56.2,30.18,WNW,292,3.1,3.1,47,0.00,,,0.00,WUHU21623XXSP,2013-05-26 15:35:00,
2013-05-26 10:40:00,78.1,56.8,30.19,ESE,112,3.4,3.4,48,0.00,,,0.00,WUHU21623XXSP,2013-05-26 15:40:00,
2013-05-26 10:45:00,78.4,57.1,30.18,ESE,112,0.0,3.4,48,0.00,,,0.00,WUHU21623XXSP,2013-05-26 15:45:00,
2013-05-26 10:50:00,78.6,56.0,30.19,SSW,202,1.3,1.3,46,0.00,,,0.00,WUHU21623XXSP,2013-05-26 15:50:00,
2013-05-26 10:55:00,79.0,55.7,30.18,South,180,0.0,1.3,45,0.00,,,0.00,WUHU21623XXSP,2013-05-26 15:55:00,
2013-05-26 11:00:00,79.2,55.9,30.18,SW,225,0.0,0.0,45,0.00,,,0.00,WUHU21623XXSP,2013-05-26 16:00:00,
2013-05-26 11:05:00,79.3,55.5,30.18,WNW,292,0.0,0.0,44,0.00,,,0.00,WUHU21623XXSP,2013-05-26 16:05:00,
2013-05-26 11:10:00,79.7,56.4,30.18,SSW,202,0.0,0.0,45,0.00,,,0.00,WUHU21623XXSP,2013-05-26 16:10:00,
2013-05-26 11:15:00,80.1,56.7,30.18,West,270,0.0,0.0,45,0.00,,,0.00,WUHU21623XXSP,2013-05-26 16:15:00,
2013-05-26 11:20:00,80.1,56.1,30.18,South,180,0.0,0.0,44,0.00,,,0.00,WUHU21623XXSP,2013-05-26 16:20:00,
2013-05-26 11:25:00,80.4,55.8,30.18,ESE,112,0.0,0.0,43,0.00,,,0.00,WUHU21623XXSP,2013-05-26 16:25:00,
2013-05-26 11:30:00,80.8,56.8,30.18,ESE,112,0.0,0.0,44,0.00,,,0.00,WUHU21623XXSP,2013-05-26 16:30:00,
2013-05-26 11:35:00,81.3,56.5,30.18,ESE,112,0.0,0.0,43,0.00,,,0.00,WUHU21623XXSP,2013-05-26 16:35:00,
2013-05-26 11:40:00,81.7,56.9,30.18,West,270,0.0,0.0,43,0.00,,,0.00,WUHU21623XXSP,2013-05-26 16:40:00,
2013-05-26 11:45:00,81.3,56.2,30.18,East,90,1.3,1.3,42,0.00,,,0.00,WUHU21623XXSP,2013-05-26 16:45:00,
2013-05-26 11:50:00,82.2,58.7,30.18,ESE,112,0.0,3.6,45,0.00,,,0.00,WUHU21623XXSP,2013-05-26 16:50:00,
2013-05-26 11:55:00,82.6,58.4,30.18,SE,135,2.9,3.6,44,0.00,,,0.00,WUHU21623XXSP,2013-05-26 16:55:00,
2013-05-26 12:00:00,83.1,58.3,30.18,WSW,247,0.0,2.9,43,0.00,,,0.00,WUHU21623XXSP,2013-05-26 17:00:00,
2013-05-26 12:05:00,83.5,58.6,30.18,ESE,112,1.3,1.3,43,0.00,,,0.00,WUHU21623XXSP,2013-05-26 17:05:00,
2013-05-26 12:10:00,83.7,57.5,30.18,SE,135,2.0,2.0,41,0.00,,,0.00,WUHU21623XXSP,2013-05-26 17:10:00,
2013-05-26 12:15:00,84.0,58.5,30.18,ESE,112,0.9,2.0,42,0.00,,,0.00,WUHU21623XXSP,2013-05-26 17:15:00,
2013-05-26 12:20:00,84.4,58.8,30.18,ENE,67,0.0,1.3,42,0.00,,,0.00,WUHU21623XXSP,2013-05-26 17:20:00,
2013-05-26 12:25:00,84.6,58.3,30.18,WSW,247,0.0,1.3,41,0.00,,,0.00,WUHU21623XXSP,2013-05-26 17:25:00,
2013-05-26 12:30:00,84.2,58.0,30.18,South,180,2.2,2.2,41,0.00,,,0.00,WUHU21623XXSP,2013-05-26 17:30:00,
2013-05-26 12:35:00,83.8,58.3,30.17,SE,135,2.7,7.8,42,0.00,,,0.00,WUHU21623XXSP,2013-05-26 17:35:00,
2013-05-26 12:40:00,84.4,58.2,30.17,SE,135,0.0,7.8,41,0.00,,,0.00,WUHU21623XXSP,2013-05-26 17:40:00,
2013-05-26 12:45:00,84.6,58.3,30.17,WNW,292,0.0,0.0,41,0.00,,,0.00,WUHU21623XXSP,2013-05-26 17:45:00,
2013-05-26 12:50:00,84.4,56.8,30.17,SSW,202,0.9,0.9,39,0.00,,,0.00,WUHU21623XXSP,2013-05-26 17:50:00,
2013-05-26 12:55:00,84.0,57.8,30.16,ESE,112,3.4,3.4,41,0.00,,,0.00,WUHU21623XXSP,2013-05-26 17:55:00,
2013-05-26 13:00:00,84.6,59.6,30.16,ESE,112,0.0,3.4,43,0.00,,,0.00,WUHU21623XXSP,2013-05-26 18:00:00,
2013-05-26 13:05:00,85.5,58.5,30.16,SSW,202,2.0,2.5,40,0.00,,,0.00,WUHU21623XXSP,2013-05-26 18:05:00,
2013-05-26 13:10:00,85.5,57.7,30.16,SSW,202,0.0,4.7,39,0.00,,,0.00,WUHU21623XXSP,2013-05-26 18:10:00,
2013-05-26 13:15:00,85.6,59.3,30.16,ESE,112,0.0,4.7,41,0.00,,,0.00,WUHU21623XXSP,2013-05-26 18:15:00,
2013-05-26 13:20:00,86.2,59.2,30.16,SSW,202,0.0,0.4,40,0.00,,,0.00,WUHU21623XXSP,2013-05-26 18:20:00,
2013-05-26 13:25:00,86.2,58.4,30.16,West,270,0.0,0.0,39,0.00,,,0.00,WUHU21623XXSP,2013-05-26 18:25:00,
2013-05-26 13:30:00,86.2,57.6,30.16,East,90,0.0,3.8,38,0.00,,,0.00,WUHU21623XXSP,2013-05-26 18:30:00,
2013-05-26 13:35:00,86.5,57.9,30.16,ESE,112,0.0,3.8,38,0.00,,,0.00,WUHU21623XXSP,2013-05-26 18:35:00,
2013-05-26 13:40:00,86.7,58.0,30.15,ESE,112,3.4,3.4,38,0.00,,,0.00,WUHU21623XXSP,2013-05-26 18:40:00,
2013-05-26 13:45:00,87.3,56.9,30.15,ESE,112,1.8,4.9,36,0.00,,,0.00,WUHU21623XXSP,2013-05-26 18:45:00,
2013-05-26 13:50:00,87.3,56.9,30.16,SSW,202,0.0,7.2,36,0.00,,,0.00,WUHU21623XXSP,2013-05-26 18:50:00,
2013-05-26 13:55:00,87.3,56.9,30.16,SE,135,0.0,7.2,36,0.00,,,0.00,WUHU21623XXSP,2013-05-26 18:55:00,
2013-05-26 14:00:00,86.9,55.0,30.15,South,180,0.0,0.0,34,0.00,,,0.00,WUHU21623XXSP,2013-05-26 19:00:00,
2013-05-26 14:05:00,86.9,56.6,30.14,WNW,292,0.0,0.0,36,0.00,,,0.00,WUHU21623XXSP,2013-05-26 19:05:00,
2013-05-26 14:10:00,86.7,55.7,30.14,South,180,0.0,0.0,35,0.00,,,0.00,WUHU21623XXSP,2013-05-26 19:10:00,
2013-05-26 14:15:00,86.7,56.4,30.14,WSW,247,0.0,0.0,36,0.00,,,0.00,WUHU21623XXSP,2013-05-26 19:15:00,
2013-05-26 14:20:00,86.7,56.4,30.14,SSW,202,0.0,3.1,36,0.00,,,0.00,WUHU21623XXSP,2013-05-26 19:20:00,
2013-05-26 14:25:00,86.9,56.6,30.14,South,180,0.0,3.1,36,0.00,,,0.00,WUHU21623XXSP,2013-05-26 19:25:00,
2013-05-26 14:30:00,86.9,55.0,30.15,NNW,337,2.5,2.5,34,0.00,,,0.00,WUHU21623XXSP,2013-05-26 19:30:00,
2013-05-26 14:35:00,86.7,54.8,30.15,ESE,112,4.7,4.7,34,0.00,,,0.00,WUHU21623XXSP,2013-05-26 19:35:00,
2013-05-26 14:40:00,86.9,55.8,30.15,ESE,112,2.5,4.7,35,0.00,,,0.00,WUHU21623XXSP,2013-05-26 19:40:00,
2013-05-26 14:45:00,86.9,54.2,30.14,East,90,0.0,2.5,33,0.00,,,0.00,WUHU21623XXSP,2013-05-26 19:45:00,
2013-05-26 14:50:00,87.1,54.3,30.14,ESE,112,3.8,3.8,33,0.00,,,0.00,WUHU21623XXSP,2013-05-26 19:50:00,
2013-05-26 14:55:00,87.4,54.6,30.14,East,90,0.0,3.8,33,0.00,,,0.00,WUHU21623XXSP,2013-05-26 19:55:00,
2013-05-26 15:00:00,88.2,55.9,30.14,ENE,67,2.2,3.4,34,0.00,,,0.00,WUHU21623XXSP,2013-05-26 20:00:00,
2013-05-26 15:05:00,89.1,56.8,30.13,ESE,112,0.0,4.7,34,0.00,,,0.00,WUHU21623XXSP,2013-05-26 20:05:00,
2013-05-26 15:10:00,89.2,55.4,30.13,West,270,0.0,4.7,32,0.00,,,0.00,WUHU21623XXSP,2013-05-26 20:10:00,
2013-05-26 15:15:00,89.2,56.2,30.13,ESE,112,1.3,1.3,33,0.00,,,0.00,WUHU21623XXSP,2013-05-26 20:15:00,
2013-05-26 15:20:00,89.1,56.0,30.13,ESE,112,0.0,1.3,33,0.00,,,0.00,WUHU21623XXSP,2013-05-26 20:20:00,
2013-05-26 15:25:00,89.1,56.0,30.13,SE,135,0.4,0.9,33,0.00,,,0.00,WUHU21623XXSP,2013-05-26 20:25:00,
2013-05-26 15:30:00,89.1,55.2,30.13,SW,225,0.0,8.7,32,0.00,,,0.00,WUHU21623XXSP,2013-05-26 20:30:00,
2013-05-26 15:35:00,88.5,54.0,30.12,ESE,112,4.3,8.7,31,0.00,,,0.00,WUHU21623XXSP,2013-05-26 20:35:00,
2013-05-26 15:40:00,88.2,54.4,30.12,SSW,202,0.0,6.3,32,0.00,,,0.00,WUHU21623XXSP,2013-05-26 20:40:00,
2013-05-26 15:45:00,87.8,55.0,30.12,SE,135,4.9,6.3,33,0.00,,,0.00,WUHU21623XXSP,2013-05-26 20:45:00,
2013-05-26 15:50:00,87.6,56.4,30.11,East,90,0.0,4.9,35,0.00,,,0.00,WUHU21623XXSP,2013-05-26 20:50:00,
2013-05-26 15:55:00,88.0,56.7,30.12,SSW,202,3.8,4.9,35,0.00,,,0.00,WUHU21623XXSP,2013-05-26 20:55:00,
2013-05-26 16:00:00,88.0,56.7,30.11,ESE,112,0.0,3.8,35,0.00,,,0.00,WUHU21623XXSP,2013-05-26 21:00:00,
2013-05-26 16:05:00,88.0,57.5,30.11,SE,135,0.0,0.0,36,0.00,,,0.00,WUHU21623XXSP,2013-05-26 21:05:00,
2013-05-26 16:10:00,87.4,55.5,30.11,West,270,1.6,1.6,34,0.00,,,0.00,WUHU21623XXSP,2013-05-26 21:10:00,
2013-05-26 16:15:00,86.9,55.0,30.10,West,270,0.0,1.6,34,0.00,,,0.00,WUHU21623XXSP,2013-05-26 21:15:00,
2013-05-26 16:20:00,86.2,56.0,30.10,SSW,202,5.1,5.1,36,0.00,,,0.00,WUHU21623XXSP,2013-05-26 21:20:00,
2013-05-26 16:25:00,85.8,56.5,30.10,ESE,112,0.0,5.1,37,0.00,,,0.00,WUHU21623XXSP,2013-05-26 21:25:00,
2013-05-26 16:30:00,85.5,56.1,30.10,WSW,247,0.0,0.9,37,0.00,,,0.00,WUHU21623XXSP,2013-05-26 21:30:00,
2013-05-26 16:35:00,85.5,56.1,30.10,SW,225,0.0,0.0,37,0.00,,,0.00,WUHU21623XXSP,2013-05-26 21:35:00,
2013-05-26 16:40:00,85.6,57.1,30.10,South,180,0.0,0.0,38,0.00,,,0.00,WUHU21623XXSP,2013-05-26 21:40:00,
2013-05-26 16:45:00,86.2,56.8,30.10,ESE,112,2.9,2.9,37,0.00,,,0.00,WUHU21623XXSP,2013-05-26 21:45:00,
2013-05-26 16:50:00,86.4,55.3,30.10,SSW,202,0.0,2.9,35,0.00,,,0.00,WUHU21623XXSP,2013-05-26 21:50:00,
2013-05-26 16:55:00,86.9,56.6,30.10,ESE,112,0.0,2.5,36,0.00,,,0.00,WUHU21623XXSP,2013-05-26 21:55:00,
2013-05-26 17:00:00,86.9,54.2,30.10,WNW,292,3.4,3.4,33,0.00,,,0.00,WUHU21623XXSP,2013-05-26 22:00:00,
2013-05-26 17:05:00,87.1,53.5,30.10,NW,315,0.0,3.4,32,0.00,,,0.00,WUHU21623XXSP,2013-05-26 22:05:00,
2013-05-26 17:10:00,87.3,52.9,30.09,ESE,112,1.8,1.8,31,0.00,,,0.00,WUHU21623XXSP,2013-05-26 22:10:00,
2013-05-26 17:15:00,87.4,54.6,30.09,ESE,112,2.2,4.5,33,0.00,,,0.00,WUHU21623XXSP,2013-05-26 22:15:00,
2013-05-26 17:20:00,88.2,55.3,30.09,ESE,112,0.9,4.5,33,0.00,,,0.00,WUHU21623XXSP,2013-05-26 22:20:00,
2013-05-26 17:25:00,88.5,55.6,30.08,ESE,112,0.0,0.9,33,0.00,,,0.00,WUHU21623XXSP,2013-05-26 22:25:00,
2013-05-26 17:30:00,88.2,54.4,30.08,ESE,112,0.0,0.9,32,0.00,,,0.00,WUHU21623XXSP,2013-05-26 22:30:00,
2013-05-26 17:35:00,87.6,54.0,30.08,SSE,157,0.0,0.0,32,0.00,,,0.00,WUHU21623XXSP,2013-05-26 22:35:00,
2013-05-26 17:40:00,86.4,53.7,30.08,SW,225,0.0,0.0,33,0.00,,,0.00,WUHU21623XXSP,2013-05-26 22:40:00,
2013-05-26 17:45:00,85.6,53.9,30.08,SE,135,0.0,0.0,34,0.00,,,0.00,WUHU21623XXSP,2013-05-26 22:45:00,
2013-05-26 17:50:00,84.4,54.4,30.08,SE,135,0.0,0.0,36,0.00,,,0.00,WUHU21623XXSP,2013-05-26 22:50:00,
2013-05-26 17:55:00,83.5,53.6,30.08,SSW,202,0.0,0.0,36,0.00,,,0.00,WUHU21623XXSP,2013-05-26 22:55:00,
2013-05-26 18:00:00,83.3,54.2,30.08,SSW,202,0.0,0.0,37,0.00,,,0.00,WUHU21623XXSP,2013-05-26 23:00:00,
2013-05-26 18:05:00,83.1,55.6,30.08,SSW,202,0.0,0.0,39,0.00,,,0.00,WUHU21623XXSP,2013-05-26 23:05:00,
2013-05-26 18:10:00,82.8,56.1,30.08,SSW,202,0.0,0.0,40,0.00,,,0.00,WUHU21623XXSP,2013-05-26 23:10:00,
2013-05-26 18:15:00,82.9,56.9,30.07,SSW,202,0.0,0.0,41,0.00,,,0.00,WUHU21623XXSP,2013-05-26 23:15:00,
2013-05-26 18:20:00,83.8,58.3,30.07,SE,135,0.0,1.8,42,0.00,,,0.00,WUHU21623XXSP,2013-05-26 23:20:00,
2013-05-26 18:25:00,84.2,58.0,30.07,SE,135,0.0,1.8,41,0.00,,,0.00,WUHU21623XXSP,2013-05-26 23:25:00,
2013-05-26 18:30:00,84.4,58.8,30.07,SE,135,0.0,0.0,42,0.00,,,0.00,WUHU21623XXSP,2013-05-26 23:30:00,
2013-05-26 18:35:00,85.6,58.7,30.07,ESE,112,0.0,2.0,40,0.00,,,0.00,WUHU21623XXSP,2013-05-26 23:35:00,
2013-05-26 18:40:00,86.2,58.4,30.07,SSE,157,0.0,2.0,39,0.00,,,0.00,WUHU21623XXSP,2013-05-26 23:40:00,
2013-05-26 18:45:00,85.8,57.3,30.07,ESE,112,1.3,1.3,38,0.00,,,0.00,WUHU21623XXSP,2013-05-26 23:45:00,
2013-05-26 18:50:00,85.5,56.9,30.07,ESE,112,0.0,4.5,38,0.00,,,0.00,WUHU21623XXSP,2013-05-26 23:50:00,
2013-05-26 18:55:00,85.5,57.7,30.07,ESE,112,0.0,4.5,39,0.00,,,0.00,WUHU21623XXSP,2013-05-26 23:55:00,
2013-05-26 19:00:00,85.1,57.4,30.07,ESE,112,0.9,0.9,39,0.00,,,0.00,WUHU21623XXSP,2013-05-27 00:00:00,
2013-05-26 19:05:00,85.1,57.4,30.07,ESE,112,0.0,0.9,39,0.00,,,0.00,WUHU21623XXSP,2013-05-27 00:05:00,
2013-05-26 19:10:00,84.9,58.0,30.07,ESE,112,0.0,0.0,40,0.00,,,0.00,WUHU21623XXSP,2013-05-27 00:10:00,
2013-05-26 19:15:00,84.6,57.7,30.07,ESE,112,0.0,0.0,40,0.00,,,0.00,WUHU21623XXSP,2013-05-27 00:15:00,
2013-05-26 19:20:00,84.2,58.0,30.07,ESE,112,0.0,0.0,41,0.00,,,0.00,WUHU21623XXSP,2013-05-27 00:20:00,
2013-05-26 19:25:00,83.8,57.7,30.07,ESE,112,0.0,0.0,41,0.00,,,0.00,WUHU21623XXSP,2013-05-27 00:25:00,
2013-05-26 19:30:00,83.5,57.3,30.07,ESE,112,0.0,0.0,41,0.00,,,0.00,WUHU21623XXSP,2013-05-27 00:30:00,
2013-05-26 19:35:00,82.4,56.4,30.07,ESE,112,0.0,0.0,41,0.00,,,0.00,WUHU21623XXSP,2013-05-27 00:35:00,
2013-05-26 19:40:00,81.5,56.2,30.07,ESE,112,0.0,0.0,42,0.00,,,0.00,WUHU21623XXSP,2013-05-27 00:40:00,
2013-05-26 19:45:00,80.8,55.5,30.07,ESE,112,0.0,0.0,42,0.00,,,0.00,WUHU21623XXSP,2013-05-27 00:45:00,
2013-05-26 19:50:00,79.7,55.2,30.07,ESE,112,0.0,0.0,43,0.00,,,0.00,WUHU21623XXSP,2013-05-27 00:50:00,
2013-05-26 19:55:00,79.0,55.1,30.07,SE,135,0.0,0.0,44,0.00,,,0.00,WUHU21623XXSP,2013-05-27 00:55:00,
2013-05-26 20:00:00,78.4,55.3,30.07,SE,135,0.0,0.0,45,0.00,,,0.00,WUHU21623XXSP,2013-05-27 01:00:00,
2013-05-26 20:05:00,77.4,54.9,30.07,ESE,112,1.8,1.8,46,0.00,,,0.00,WUHU21623XXSP,2013-05-27 01:05:00,
2013-05-26 20:10:00,76.5,54.1,30.07,ESE,112,0.0,1.8,46,0.00,,,0.00,WUHU21623XXSP,2013-05-27 01:10:00,
2013-05-26 20:15:00,75.9,53.6,30.07,ESE,112,0.0,0.0,46,0.00,,,0.00,WUHU21623XXSP,2013-05-27 01:15:00,
2013-05-26 20:20:00,75.2,53.6,30.07,ESE,112,0.0,0.0,47,0.00,,,0.00,WUHU21623XXSP,2013-05-27 01:20:00,
2013-05-26 20:25:00,74.7,53.6,30.07,ESE,112,0.0,0.0,48,0.00,,,0.00,WUHU21623XXSP,2013-05-27 01:25:00,
2013-05-26 20:30:00,74.1,53.1,30.07,ESE,112,0.0,0.0,48,0.00,,,0.00,WUHU21623XXSP,2013-05-27 01:30:00,
2013-05-26 20:35:00,73.8,53.3,30.07,ESE,112,0.0,0.0,49,0.00,,,0.00,WUHU21623XXSP,2013-05-27 01:35:00,
2013-05-26 20:40:00,73.4,53.0,30.07,ESE,112,0.0,0.0,49,0.00,,,0.00,WUHU21623XXSP,2013-05-27 01:40:00,
2013-05-26 20:45:00,72.9,53.1,30.07,ESE,112,0.0,0.0,50,0.00,,,0.00,WUHU21623XXSP,2013-05-27 01:45:00,
2013-05-26 20:50:00,72.5,52.8,30.07,ESE,112,0.0,0.0,50,0.00,,,0.00,WUHU21623XXSP,2013-05-27 01:50:00,
2013-05-26 20:55:00,72.3,52.6,30.07,ESE,112,0.0,0.0,50,0.00,,,0.00,WUHU21623XXSP,2013-05-27 01:55:00,
2013-05-26 21:00:00,72.0,52.8,30.07,ESE,112,0.0,0.0,51,0.00,,,0.00,WUHU21623XXSP,2013-05-27 02:00:00,
2013-05-26 21:05:00,72.0,52.8,30.07,SE,135,0.0,0.0,51,0.00,,,0.00,WUHU21623XXSP,2013-05-27 02:05:00,
2013-05-26 21:10:00,71.8,52.6,30.07,SE,135,0.0,0.0,51,0.00,,,0.00,WUHU21623XXSP,2013-05-27 02:10:00,
2013-05-26 21:15:00,71.6,52.5,30.07,ESE,112,0.0,0.0,51,0.00,,,0.00,WUHU21623XXSP,2013-05-27 02:15:00,
2013-05-26 21:20:00,71.2,52.7,30.08,ESE,112,0.0,0.0,52,0.00,,,0.00,WUHU21623XXSP,2013-05-27 02:20:00,
2013-05-26 21:25:00,71.2,52.7,30.07,ESE,112,0.0,0.0,52,0.00,,,0.00,WUHU21623XXSP,2013-05-27 02:25:00,
2013-05-26 21:30:00,71.1,52.5,30.08,ESE,112,0.0,0.0,52,0.00,,,0.00,WUHU21623XXSP,2013-05-27 02:30:00,
2013-05-26 21:35:00,71.1,52.5,30.07,ESE,112,0.0,0.0,52,0.00,,,0.00,WUHU21623XXSP,2013-05-27 02:35:00,
2013-05-26 21:40:00,70.5,52.5,30.08,ESE,112,0.0,0.0,53,0.00,,,0.00,WUHU21623XXSP,2013-05-27 02:40:00,
2013-05-26 21:45:00,70.5,53.0,30.08,ESE,112,0.0,0.0,54,0.00,,,0.00,WUHU21623XXSP,2013-05-27 02:45:00,
2013-05-26 21:50:00,70.3,52.9,30.08,ESE,112,0.0,0.0,54,0.00,,,0.00,WUHU21623XXSP,2013-05-27 02:50:00,
2013-05-26 21:55:00,70.2,52.7,30.08,ESE,112,0.0,0.0,54,0.00,,,0.00,WUHU21623XXSP,2013-05-27 02:55:00,
2013-05-26 22:00:00,70.0,52.5,30.08,ESE,112,0.0,0.0,54,0.00,,,0.00,WUHU21623XXSP,2013-05-27 03:00:00,
2013-05-26 22:05:00,69.8,52.9,30.08,ESE,112,0.0,0.0,55,0.00,,,0.00,WUHU21623XXSP,2013-05-27 03:05:00,
2013-05-26 22:10:00,69.8,52.9,30.08,ESE,112,0.0,0.0,55,0.00,,,0.00,WUHU21623XXSP,2013-05-27 03:10:00,
2013-05-26 22:15:00,69.4,52.5,30.08,ESE,112,0.0,0.0,55,0.00,,,0.00,WUHU21623XXSP,2013-05-27 03:15:00,
2013-05-26 22:20:00,69.4,52.5,30.08,ESE,112,0.0,0.0,55,0.00,,,0.00,WUHU21623XXSP,2013-05-27 03:20:00,
2013-05-26 22:25:00,69.1,52.7,30.08,ESE,112,0.0,0.0,56,0.00,,,0.00,WUHU21623XXSP,2013-05-27 03:25:00,
2013-05-26 22:30:00,68.9,52.5,30.08,ESE,112,0.0,0.0,56,0.00,,,0.00,WUHU21623XXSP,2013-05-27 03:30:00,
2013-05-26 22:35:00,68.7,52.3,30.08,ESE,112,0.0,0.0,56,0.00,,,0.00,WUHU21623XXSP,2013-05-27 03:35:00,
2013-05-26 22:40:00,68.7,53.3,30.08,ESE,112,0.0,0.0,58,0.00,,,0.00,WUHU21623XXSP,2013-05-27 03:40:00,
2013-05-26 22:45:00,68.4,53.0,30.08,ESE,112,0.0,0.0,58,0.00,,,0.00,WUHU21623XXSP,2013-05-27 03:45:00,
2013-05-26 22:50:00,68.4,53.0,30.08,ESE,112,0.0,0.0,58,0.00,,,0.00,WUHU21623XXSP,2013-05-27 03:50:00,
2013-05-26 22:55:00,68.2,53.5,30.08,ESE,112,0.0,0.0,59,0.00,,,0.00,WUHU21623XXSP,2013-05-27 03:55:00,
2013-05-26 23:00:00,68.2,53.3,30.08,ESE,112,0.0,0.0,59,0.00,,,0.00,WUHU21623XXSP,2013-05-27 04:00:00,
2013-05-26 23:01:00,68.2,53.3,30.08,ESE,112,0.0,0.0,59,0.00,,,0.00,WUHU21623XXSP,2013-05-27 04:01:00,
2013-05-26 23:06:00,68.0,53.3,30.08,ESE,112,0.0,0.0,59,0.00,,,0.00,WUHU21623XXSP,2013-05-27 04:06:00,
2013-05-26 23:11:00,68.0,53.6,30.08,ESE,112,0.0,0.0,60,0.00,,,0.00,WUHU21623XXSP,2013-05-27 04:11:00,
2013-05-26 23:16:00,68.0,53.6,30.08,ESE,112,0.0,0.0,60,0.00,,,0.00,WUHU21623XXSP,2013-05-27 04:16:00,
2013-05-26 23:21:00,67.6,53.3,30.08,ESE,112,0.0,0.0,60,0.00,,,0.00,WUHU21623XXSP,2013-05-27 04:21:00,
2013-05-26 23:26:00,67.6,53.3,30.08,ESE,112,0.0,0.0,60,0.00,,,0.00,WUHU21623XXSP,2013-05-27 04:26:00,
2013-05-26 23:31:00,67.6,53.3,30.08,ESE,112,0.0,0.0,60,0.00,,,0.00,WUHU21623XXSP,2013-05-27 04:31:00,
2013-05-26 23:36:00,67.5,53.5,30.08,ESE,112,0.0,0.0,61,0.00,,,0.00,WUHU21623XXSP,2013-05-27 04:36:00,
2013-05-26 23:41:00,67.3,53.4,30.09,ESE,112,0.0,0.0,61,0.00,,,0.00,WUHU21623XXSP,2013-05-27 04:41:00,
2013-05-26 23:46:00,67.1,53.2,30.08,ESE,112,0.0,0.0,61,0.00,,,0.00,WUHU21623XXSP,2013-05-27 04:46:00,
2013-05-26 23:51:00,67.1,53.2,30.08,ESE,112,0.0,0.0,61,0.00,,,0.00,WUHU21623XXSP,2013-05-27 04:51:00,
2013-05-26 23:56:00,66.9,53.5,30.08,ESE,112,0.0,0.0,62,0.00,,,0.00,WUHU21623XXSP,2013-05-27 04:56:00,